Ft. Stewart, GA

10:08 AM EDT on April 21, 2018 (GMT -0400)
Wright Army Air Field

Weather History for KLHW - March, 2014

Change the Weather History Date:

Tuesday, March 18, 2014

  Actual Average Record
Temperature  
Mean Temperature 48 °F -  
Max Temperature 58 °F 72 °F 87 °F (1977)
Min Temperature 40 °F 46 °F 30 °F (1971)
Degree Days  
Heating Degree Days 17    
Moisture  
Dew Point 45 °F    
Average Humidity 96    
Maximum Humidity 100    
Minimum Humidity 76    
Precipitation  
Precipitation 0.12 in - - ()
Sea Level Pressure  
Sea Level Pressure 29.93 in    
Wind  
Wind Speed 9 mph (North)    
Max Wind Speed 16 mph    
Max Gust Speed 20 mph    
Visibility 8 miles    
Events Rain    
Averages and records for this station are not official NWS values.
T = Trace of Precipitation, MM = Missing Value Source: NWS Daily Summary

Daily Weather History Graph

Daily Weather History Graph

Search for Another Location

Airport or City:

Astronomy

Mar. 18, 2014 Rise Set
Actual Time 7:32 AM EDT 7:36 PM EDT
Civil Twilight 7:08 AM EDT 8:00 PM EDT
Nautical Twilight 6:39 AM EDT 8:29 PM EDT
Astronomical Twilight 6:11 AM EDT 8:57 PM EDT
Moon 9:42 PM EDT (3/18) 8:29 AM EDT (3/18)
Length of Visible Light 12h 52m
Length of Day
12h 03m
Waning Gibbous, 96% of the Moon is Illuminated
Mar 18
Waning Gibbous
Mar 23
Last Quarter
Mar 30
New
Apr 7
First Quarter
Apr 15
Full

Hourly Weather History & Observations

Time (EDT) Temp. Windchill Dew Point Humidity Pressure Visibility Wind Dir Wind Speed Gust Speed Precip Events Conditions
12:13 AM 48.2 °F - 48.2 °F 100% 29.80 in 4.0 mi North 11.5 mph - N/A Rain Light Rain
12:18 AM 48.2 °F - 48.2 °F 100% 29.80 in 5.0 mi North 10.4 mph - N/A Rain Rain
12:28 AM 48.2 °F - 48.2 °F 100% 29.78 in 7.0 mi North 8.1 mph - N/A Rain Rain
12:38 AM 48.2 °F - 48.2 °F 100% 29.79 in 8.0 mi NNE 10.4 mph - N/A Rain Light Rain
12:43 AM 48.2 °F - 48.2 °F 100% 29.80 in 10.0 mi North 10.4 mph - N/A Rain Light Rain
12:58 AM 46.9 °F - 46.9 °F 100% 29.79 in 10.0 mi North 10.4 mph - 0.03 in Rain Rain
1:13 AM 46.4 °F 41.1 °F 46.4 °F 100% 29.77 in 9.0 mi North 11.5 mph - N/A Rain Rain
1:28 AM 46.4 °F 41.9 °F 46.4 °F 100% 29.76 in 10.0 mi North 9.2 mph - N/A Rain Light Rain
1:36 AM 46.4 °F 41.5 °F 46.4 °F 100% 29.77 in 10.0 mi NNE 10.4 mph - N/A   Overcast
1:38 AM 46.4 °F 41.9 °F 46.4 °F 100% 29.76 in 10.0 mi NNE 9.2 mph - N/A Rain Light Rain
1:48 AM 44.6 °F 38.4 °F 44.6 °F 100% 29.77 in 10.0 mi North 12.7 mph - N/A   Overcast
1:50 AM 44.6 °F 39.7 °F 44.6 °F 100% 29.77 in 10.0 mi North 9.2 mph - N/A Rain Light Rain
1:58 AM 45.1 °F 39.1 °F 45.1 °F 100% 29.78 in 10.0 mi North 12.7 mph - 0.03 in Rain Light Rain
2:38 AM 44.6 °F 39.2 °F 44.6 °F 100% 29.76 in 8.0 mi NNE 10.4 mph - N/A Rain Heavy Rain
2:53 AM 44.6 °F 40.7 °F 44.6 °F 100% 29.77 in 10.0 mi North 6.9 mph - N/A Rain Light Rain
2:58 AM 44.4 °F - 44.4 °F 100% 29.80 in 10.0 mi Variable 2.3 mph - 0.04 in Rain Light Rain
3:13 AM 44.6 °F 40.2 °F 44.6 °F 100% 29.79 in 10.0 mi NNE 8.1 mph - N/A Rain Light Rain
3:25 AM 44.6 °F 39.7 °F 44.6 °F 100% 29.77 in 10.0 mi North 9.2 mph - N/A   Overcast
3:58 AM 43.3 °F 38.6 °F 43.3 °F 100% 29.80 in 10.0 mi North 8.1 mph - 0.01 in   Overcast
4:23 AM 42.8 °F 36.6 °F 42.8 °F 100% 29.79 in 10.0 mi North 11.5 mph - N/A   Overcast
4:58 AM 42.8 °F 37.0 °F 42.8 °F 100% 29.78 in 10.0 mi NNE 10.4 mph - N/A   Overcast
5:12 AM 42.8 °F 37.5 °F 42.8 °F 100% 29.78 in 10.0 mi NNW 9.2 mph - N/A Rain Light Rain
5:35 AM 42.8 °F 37.0 °F 42.8 °F 100% 29.76 in 10.0 mi North 10.4 mph - N/A   Overcast
5:48 AM 42.8 °F 35.1 °F 42.8 °F 100% 29.75 in 10.0 mi NNE 16.1 mph 16.1 mph N/A Rain Light Rain
5:58 AM 42.1 °F 35.7 °F 42.1 °F 100% 29.76 in 9.0 mi NNE 11.5 mph 19.6 mph 0.01 in Rain Light Rain
6:12 AM 41.0 °F 36.4 °F 41.0 °F 100% 29.77 in 10.0 mi North 6.9 mph - N/A   Overcast
6:52 AM 41.0 °F 34.7 °F 41.0 °F 100% 29.78 in 8.0 mi NNW 10.4 mph - N/A   Overcast
6:58 AM 41.7 °F 35.6 °F 41.7 °F 100% 29.80 in 6.0 mi NNW 10.4 mph - 0.00 in   Overcast
7:28 AM 41.0 °F 34.3 °F 41.0 °F 100% 29.81 in 10.0 mi North 11.5 mph 18.4 mph N/A   Overcast
7:58 AM 41.0 °F 35.8 °F 41.0 °F 100% 29.87 in 10.0 mi NNW 8.1 mph - N/A   Overcast
8:23 AM 41.0 °F 35.8 °F 41.0 °F 100% 29.89 in 10.0 mi NNW 8.1 mph - N/A   Overcast
8:33 AM 41.0 °F 37.1 °F 41.0 °F 100% 29.88 in 10.0 mi NNE 5.8 mph - N/A   Overcast
8:38 AM 41.0 °F 36.4 °F 41.0 °F 100% 29.88 in 10.0 mi North 6.9 mph - N/A Rain Light Rain
8:58 AM 40.8 °F 36.2 °F 40.8 °F 100% 29.89 in 9.0 mi NNE 6.9 mph - 0.00 in Rain Light Rain
9:12 AM 41.0 °F 35.2 °F 41.0 °F 100% 29.89 in 10.0 mi NNE 9.2 mph - N/A   Overcast
9:32 AM 41.0 °F 34.7 °F 41.0 °F 100% 29.92 in 10.0 mi North 10.4 mph - N/A   Overcast
9:58 AM 41.4 °F 36.8 °F 41.4 °F 100% 29.97 in 10.0 mi NNW 6.9 mph - 0.00 in   Overcast
10:23 AM 41.0 °F 36.4 °F 41.0 °F 100% 29.97 in 10.0 mi North 6.9 mph - N/A   Overcast
10:30 AM 41.0 °F 35.2 °F 41.0 °F 100% 29.98 in 10.0 mi North 9.2 mph - N/A   Overcast
10:58 AM 41.9 °F 36.9 °F 41.9 °F 100% 30.00 in 10.0 mi North 8.1 mph - 0.00 in   Overcast
11:02 AM 41.0 °F 35.8 °F 41.0 °F 100% 30.00 in 10.0 mi North 8.1 mph - N/A   Overcast
11:32 AM 42.8 °F 37.0 °F 42.8 °F 100% 30.00 in 10.0 mi NNW 10.4 mph - N/A   Overcast
11:58 AM 44.2 °F 40.3 °F 44.2 °F 100% 30.01 in 10.0 mi NNW 6.9 mph - 0.00 in   Overcast
12:58 PM 46.4 °F 43.5 °F 46.0 °F 99% 30.00 in 10.0 mi Variable 5.8 mph - N/A   Overcast
1:13 PM 48.2 °F - 46.4 °F 93% 30.00 in 10.0 mi North 8.1 mph - N/A   Overcast
1:58 PM 50.0 °F - 46.6 °F 88% 29.99 in 10.0 mi North 9.2 mph - N/A   Overcast
2:38 PM 53.6 °F - 48.2 °F 82% 29.96 in 10.0 mi NNW 6.9 mph - N/A   Mostly Cloudy
2:58 PM 54.1 °F - 48.0 °F 80% 29.97 in 10.0 mi North 8.1 mph - N/A   Overcast
3:58 PM 56.8 °F - 49.5 °F 76% 29.97 in 10.0 mi North 6.9 mph - N/A   Overcast
4:58 PM 55.9 °F - 48.9 °F 77% 29.98 in 8.0 mi North 8.1 mph - N/A   Overcast
5:43 PM 55.4 °F - 48.2 °F 77% 29.98 in 4.0 mi NNE 6.9 mph - N/A   Haze
5:58 PM 55.4 °F - 48.7 °F 78% 29.98 in 5.0 mi NNE 9.2 mph - N/A   Haze
6:58 PM 51.6 °F - 46.8 °F 83% 30.02 in 6.0 mi NNE 9.2 mph - N/A   Haze
7:33 PM 50.0 °F - 46.4 °F 87% 30.03 in 7.0 mi North 5.8 mph - N/A   Mostly Cloudy
7:38 PM 50.0 °F - 46.4 °F 87% 30.03 in 6.0 mi North 5.8 mph - N/A   Mostly Cloudy
7:58 PM 50.0 °F - 46.4 °F 87% 30.05 in 6.0 mi North 9.2 mph - N/A   Overcast
8:58 PM 48.6 °F - 46.0 °F 91% 30.08 in 5.0 mi NNE 8.1 mph - N/A   Overcast
9:08 PM 48.2 °F - 46.4 °F 93% 30.07 in 6.0 mi North 6.9 mph - N/A   Overcast
9:18 PM 48.2 °F - 46.4 °F 93% 30.08 in 4.0 mi NE 4.6 mph - N/A   Overcast
9:38 PM 48.2 °F - 46.4 °F 93% 30.09 in 2.5 mi NNE 3.5 mph - N/A   Overcast
9:43 PM 48.2 °F - 46.4 °F 93% 30.09 in 4.0 mi North 4.6 mph - N/A   Overcast
9:49 PM 48.2 °F - 46.4 °F 93% 30.09 in 7.0 mi North 5.8 mph - N/A   Overcast
9:58 PM 48.2 °F - 46.2 °F 93% 30.11 in 6.0 mi North 6.9 mph - N/A   Overcast
10:03 PM 48.2 °F - 46.4 °F 93% 30.10 in 6.0 mi North 5.8 mph - N/A   Overcast
10:08 PM 48.2 °F - 46.4 °F 93% 30.10 in 6.0 mi North 6.9 mph - N/A   Overcast
10:18 PM 48.2 °F - 46.4 °F 93% 30.10 in 6.0 mi North 6.9 mph - N/A   Overcast
10:28 PM 48.2 °F - 44.6 °F 87% 30.11 in 7.0 mi North 5.8 mph - N/A   Overcast
10:43 PM 46.4 °F 43.5 °F 46.4 °F 100% 30.11 in 6.0 mi North 5.8 mph - N/A   Overcast
10:58 PM 47.1 °F - 45.5 °F 94% 30.12 in 6.0 mi North 5.8 mph - N/A   Overcast
11:18 PM 46.4 °F 42.9 °F 44.6 °F 93% 30.11 in 4.0 mi NNE 6.9 mph - N/A   Overcast
11:28 PM 46.4 °F 42.4 °F 46.4 °F 100% 30.12 in 5.0 mi NNE 8.1 mph - N/A   Overcast
11:38 PM 46.4 °F 42.9 °F 44.6 °F 93% 30.12 in 6.0 mi NNE 6.9 mph - N/A   Overcast
11:53 PM 46.4 °F 42.4 °F 44.6 °F 93% 30.12 in 5.0 mi NNE 8.1 mph - N/A   Overcast
11:58 PM 46.2 °F 42.7 °F 45.1 °F 96% 30.13 in 5.0 mi NNE 6.9 mph - N/A   Overcast